| time (UTC) | temp F | wind direction | speed MPH | gust MPH | rain 1hr in | rain 24hr in | rain mn in | humidity % | barometer mb |
| 20260510183316 | 58 | 277 | 1.0 | 3.0 | 0.00 | 0.09 | 0.03 | 81 | 1012.8 |
| 20260510183045 | 58 | 277 | 0.0 | 5.0 | 0.00 | 0.09 | 0.00 | 79 | 1013.6 |
| 20260510182310 | 58 | 277 | 2.0 | 6.0 | 0.00 | 0.09 | 0.03 | 79 | 1012.8 |
| 20260510181809 | 58 | 277 | 2.0 | 6.0 | 0.00 | 0.09 | 0.03 | 79 | 1012.7 |
| 20260510181649 | 58 | 277 | 1.0 | 6.0 | 0.00 | 0.09 | 0.00 | 79 | 1013.6 |
| 20260510181309 | 58 | 277 | 2.0 | 5.0 | 0.00 | 0.09 | 0.03 | 79 | 1012.8 |
| 20260510180806 | 58 | 277 | 1.0 | 4.0 | 0.00 | 0.09 | 0.03 | 80 | 1012.7 |
| 20260510180305 | 58 | 277 | 2.0 | 5.0 | 0.00 | 0.09 | 0.03 | 81 | 1012.8 |
| 20260510180050 | 57 | 277 | 1.0 | 7.0 | 0.00 | 0.09 | 0.00 | 79 | 1013.6 |
| 20260510175807 | 58 | 277 | 2.0 | 7.0 | 0.00 | 0.09 | 0.03 | 81 | 1012.9 |
| 20260510175306 | 57 | 277 | 2.0 | 7.0 | 0.00 | 0.09 | 0.03 | 82 | 1012.9 |
| 20260510174803 | 57 | 277 | 2.0 | 9.0 | 0.00 | 0.09 | 0.03 | 83 | 1012.9 |
| 20260510174641 | 56 | 277 | 3.0 | 9.0 | 0.00 | 0.09 | 0.00 | 82 | 1013.6 |
| 20260510174304 | 57 | 277 | 2.0 | 9.0 | 0.00 | 0.09 | 0.03 | 82 | 1012.8 |
| 20260510173802 | 57 | 277 | 2.0 | 6.0 | 0.00 | 0.09 | 0.03 | 82 | 1012.8 |
| 20260510173302 | 57 | 277 | 1.0 | 6.0 | 0.00 | 0.09 | 0.03 | 82 | 1012.8 |
| 20260510173050 | 56 | 277 | 1.0 | 6.0 | 0.00 | 0.09 | 0.00 | 81 | 1013.6 |
| 20260510173025 | 56 | 277 | 2.0 | 6.0 | 0.00 | 0.09 | 0.00 | 81 | 1013.6 |
| 20260510172301 | 57 | 277 | 1.0 | 7.0 | 0.00 | 0.09 | 0.03 | 82 | 1013.0 |
| 20260510171637 | 56 | 277 | 0.0 | 6.0 | 0.00 | 0.09 | 0.00 | 83 | 1013.6 |
| 20260510171301 | 56 | 277 | 2.0 | 6.0 | 0.00 | 0.09 | 0.03 | 83 | 1012.8 |
| 20260510170801 | 56 | 277 | 2.0 | 7.0 | 0.00 | 0.09 | 0.03 | 83 | 1012.8 |
| 20260510170039 | 56 | 277 | 2.0 | 7.0 | 0.00 | 0.09 | 0.00 | 82 | 1013.4 |
| 20260510165801 | 57 | 277 | 2.0 | 5.0 | 0.00 | 0.09 | 0.03 | 84 | 1012.8 |
| 20260510165305 | 57 | 277 | 2.0 | 6.0 | 0.00 | 0.09 | 0.03 | 84 | 1012.7 |
| 20260510164800 | 56 | 277 | 2.0 | 6.0 | 0.00 | 0.09 | 0.03 | 86 | 1012.7 |
| 20260510164630 | 56 | 277 | 1.0 | 6.0 | 0.00 | 0.09 | 0.00 | 85 | 1013.5 |
| 20260510164302 | 56 | 277 | 1.0 | 5.0 | 0.00 | 0.09 | 0.03 | 85 | 1012.8 |
| 20260510163801 | 55 | 277 | 1.0 | 5.0 | 0.00 | 0.09 | 0.03 | 86 | 1012.8 |
| 20260510163034 | 54 | 277 | 0.0 | 3.0 | 0.00 | 0.09 | 0.00 | 88 | 1013.6 |
| 20260510162802 | 55 | 277 | 1.0 | 3.0 | 0.00 | 0.09 | 0.03 | 87 | 1012.9 |
| 20260510162301 | 54 | 277 | 1.0 | 4.0 | 0.00 | 0.09 | 0.03 | 87 | 1012.9 |
| 20260510161802 | 54 | 277 | 1.0 | 4.0 | 0.00 | 0.09 | 0.03 | 87 | 1012.9 |
| 20260510161544 | 54 | 277 | 1.0 | 4.0 | 0.00 | 0.09 | 0.00 | 87 | 1013.8 |
| 20260510160301 | 54 | 277 | 1.0 | 5.0 | 0.00 | 0.09 | 0.03 | 89 | 1012.9 |
| 20260510160036 | 54 | 277 | 1.0 | 5.0 | 0.00 | 0.09 | 0.00 | 88 | 1013.7 |
| 20260510155802 | 54 | 277 | 2.0 | 6.0 | 0.00 | 0.09 | 0.03 | 88 | 1012.9 |
| 20260510155305 | 54 | 277 | 2.0 | 6.0 | 0.00 | 0.09 | 0.03 | 87 | 1012.9 |
| 20260510154802 | 54 | 277 | 2.0 | 5.0 | 0.00 | 0.09 | 0.03 | 87 | 1012.9 |
| 20260510154631 | 54 | 277 | 1.0 | 5.0 | 0.00 | 0.09 | 0.00 | 87 | 1013.7 |
| 20260510154301 | 55 | 277 | 2.0 | 5.0 | 0.00 | 0.09 | 0.03 | 87 | 1012.8 |
| 20260510153032 | 53 | 277 | 1.0 | 7.0 | 0.00 | 0.09 | 0.00 | 91 | 1013.7 |
| 20260510152802 | 53 | 277 | 2.0 | 7.0 | 0.00 | 0.09 | 0.03 | 90 | 1012.9 |
| 20260510151803 | 53 | 277 | 2.0 | 6.0 | 0.00 | 0.09 | 0.03 | 90 | 1013.1 |
| 20260510151632 | 52 | 277 | 1.0 | 6.0 | 0.00 | 0.09 | 0.00 | 91 | 1013.9 |
| 20260510151302 | 52 | 277 | 1.0 | 6.0 | 0.00 | 0.09 | 0.03 | 91 | 1013.0 |
| 20260510150803 | 52 | 277 | 1.0 | 3.0 | 0.00 | 0.09 | 0.03 | 91 | 1013.0 |
| 20260510150028 | 51 | 277 | 0.0 | 5.0 | 0.00 | 0.09 | 0.00 | 93 | 1013.9 |
| 20260510145803 | 52 | 277 | 1.0 | 5.0 | 0.00 | 0.09 | 0.03 | 92 | 1013.1 |
| 20260510144803 | 51 | 277 | 2.0 | 7.0 | 0.00 | 0.09 | 0.03 | 93 | 1013.0 |
| 20260510144621 | 50 | 277 | 2.0 | 7.0 | 0.00 | 0.09 | 0.00 | 93 | 1013.9 |
| 20260510144300 | 51 | 277 | 2.0 | 6.0 | 0.00 | 0.09 | 0.03 | 93 | 1013.0 |
| 20260510143801 | 51 | 277 | 3.0 | 8.0 | 0.00 | 0.09 | 0.03 | 93 | 1013.0 |
| 20260510143302 | 51 | 277 | 2.0 | 8.0 | 0.00 | 0.09 | 0.03 | 94 | 1012.9 |
| 20260510143018 | 50 | 277 | 3.0 | 8.0 | 0.00 | 0.09 | 0.00 | 94 | 1013.6 |
| 20260510142300 | 49 | 277 | 1.0 | 5.0 | 0.00 | 0.09 | 0.03 | 95 | 1012.7 |
| 20260510141801 | 49 | 277 | 1.0 | 6.0 | 0.00 | 0.09 | 0.03 | 95 | 1012.8 |
| 20260510141531 | 48 | 277 | 2.0 | 6.0 | 0.00 | 0.09 | 0.00 | 95 | 1013.9 |
| 20260510140801 | 49 | 277 | 1.0 | 4.0 | 0.00 | 0.09 | 0.03 | 96 | 1013.1 |
| 20260510140301 | 48 | 277 | 1.0 | 7.0 | 0.00 | 0.09 | 0.03 | 96 | 1013.3 |
| 20260510140012 | 47 | 277 | 0.0 | 7.0 | 0.00 | 0.09 | 0.00 | 96 | 1014.3 |
| 20260510135801 | 48 | 277 | 1.0 | 7.0 | 0.00 | 0.09 | 0.03 | 96 | 1013.4 |
| 20260510135305 | 47 | 277 | 1.0 | 4.0 | 0.00 | 0.09 | 0.03 | 96 | 1013.5 |
| 20260510134608 | 47 | 277 | 1.0 | 5.0 | 0.00 | 0.09 | 0.00 | 96 | 1014.3 |
| 20260510134301 | 47 | 277 | 1.0 | 5.0 | 0.00 | 0.09 | 0.03 | 96 | 1013.5 |
| 20260510133801 | 47 | 277 | 0.0 | 4.0 | 0.00 | 0.09 | 0.03 | 96 | 1013.4 |
| 20260510133001 | 47 | 277 | 0.0 | 0.0 | 0.00 | 0.09 | 0.00 | 96 | 1014.2 |
| 20260510132801 | 47 | 277 | 0.0 | 3.0 | 0.00 | 0.09 | 0.03 | 96 | 1013.3 |
| 20260510132305 | 47 | 277 | 0.0 | 3.0 | 0.00 | 0.09 | 0.03 | 96 | 1013.3 |
| 20260510131804 | 47 | 277 | 0.0 | 2.0 | 0.00 | 0.09 | 0.03 | 96 | 1013.1 |
| 20260510131605 | 47 | 277 | 0.0 | 2.0 | 0.00 | 0.09 | 0.00 | 96 | 1013.8 |
| 20260510131301 | 47 | 277 | 0.0 | 2.0 | 0.00 | 0.09 | 0.03 | 96 | 1012.9 |
| 20260510130801 | 47 | 277 | 1.0 | 2.0 | 0.00 | 0.09 | 0.03 | 96 | 1012.9 |
| 20260510130152 | 46 | 277 | 0.0 | 5.0 | 0.00 | 0.09 | 0.00 | 96 | 1013.8 |
| 20260510125802 | 47 | 277 | 1.0 | 5.0 | 0.00 | 0.09 | 0.03 | 96 | 1013.0 |
| 20260510124556 | 46 | 277 | 0.0 | 0.0 | 0.00 | 0.09 | 0.00 | 97 | 1013.9 |
| 20260510124302 | 46 | 277 | 0.0 | 0.0 | 0.00 | 0.09 | 0.03 | 97 | 1013.1 |
| 20260510123801 | 46 | 277 | 0.0 | 2.0 | 0.00 | 0.09 | 0.03 | 96 | 1013.0 |
| 20260510123302 | 46 | 277 | 1.0 | 2.0 | 0.00 | 0.09 | 0.03 | 97 | 1012.9 |
| 20260510123129 | 46 | 277 | 0.0 | 2.0 | 0.00 | 0.09 | 0.00 | 97 | 1013.9 |
| 20260510122803 | 46 | 277 | 1.0 | 5.0 | 0.00 | 0.09 | 0.03 | 97 | 1013.0 |
| 20260510122300 | 46 | 277 | 1.0 | 5.0 | 0.00 | 0.09 | 0.03 | 97 | 1013.0 |
| 20260510121530 | 45 | 277 | 1.0 | 3.0 | 0.00 | 0.09 | 0.00 | 97 | 1013.9 |
| 20260510121300 | 46 | 277 | 1.0 | 3.0 | 0.00 | 0.09 | 0.03 | 97 | 1012.9 |
| 20260510120802 | 45 | 277 | 0.0 | 3.0 | 0.00 | 0.09 | 0.03 | 97 | 1013.0 |
| 20260510120129 | 44 | 277 | 0.0 | 2.0 | 0.00 | 0.09 | 0.00 | 97 | 1013.8 |
| 20260510115801 | 44 | 277 | 0.0 | 1.0 | 0.00 | 0.09 | 0.03 | 97 | 1012.9 |
| 20260510115301 | 44 | 277 | 0.0 | 1.0 | 0.00 | 0.09 | 0.03 | 97 | 1012.9 |
| 20260510114802 | 44 | 277 | 0.0 | 2.0 | 0.00 | 0.09 | 0.03 | 97 | 1013.2 |
| 20260510114518 | 43 | 277 | 0.0 | 2.0 | 0.00 | 0.09 | 0.00 | 97 | 1014.0 |
| 20260510114302 | 44 | 277 | 0.0 | 2.0 | 0.00 | 0.09 | 0.03 | 97 | 1013.0 |
| 20260510113802 | 44 | 277 | 0.0 | 2.0 | 0.00 | 0.09 | 0.03 | 97 | 1012.9 |
| 20260510113302 | 44 | 277 | 0.0 | 2.0 | 0.00 | 0.09 | 0.03 | 97 | 1012.9 |
| 20260510113115 | 44 | 277 | 0.0 | 0.0 | 0.00 | 0.09 | 0.00 | 97 | 1013.7 |
| 20260510112803 | 44 | 277 | 0.0 | 0.0 | 0.00 | 0.09 | 0.03 | 97 | 1012.9 |
| 20260510112305 | 44 | 277 | 0.0 | 0.0 | 0.00 | 0.09 | 0.03 | 97 | 1012.9 |
| 20260510111801 | 44 | 277 | 0.0 | 0.0 | 0.00 | 0.09 | 0.03 | 97 | 1012.6 |
| 20260510111513 | 44 | 277 | 0.0 | 0.0 | 0.00 | 0.09 | 0.00 | 97 | 1013.3 |
| 20260510111301 | 44 | 277 | 0.0 | 0.0 | 0.00 | 0.09 | 0.03 | 97 | 1012.4 |
| 20260510110302 | 44 | 277 | 0.0 | 0.0 | 0.00 | 0.09 | 0.03 | 97 | 1012.2 |
| 20260510110114 | 43 | 277 | 0.0 | 0.0 | 0.00 | 0.09 | 0.00 | 97 | 1013.1 |
| 20260510105800 | 43 | 277 | 0.0 | 0.0 | 0.00 | 0.09 | 0.03 | 97 | 1012.0 |
| 20260510105254 | 43 | 277 | 0.0 | 0.0 | 0.00 | 0.09 | 0.03 | 97 | 1012.1 |
| 20260510104748 | 43 | 277 | 0.0 | 0.0 | 0.00 | 0.09 | 0.03 | 97 | 1012.2 |
| 20260510104502 | 43 | 277 | 0.0 | 0.0 | 0.00 | 0.09 | 0.00 | 97 | 1013.5 |
| 20260510104246 | 43 | 277 | 0.0 | 0.0 | 0.00 | 0.09 | 0.03 | 97 | 1012.5 |
| 20260510103243 | 43 | 277 | 0.0 | 0.0 | 0.00 | 0.09 | 0.03 | 97 | 1012.1 |
| 20260510103102 | 43 | 277 | 0.0 | 0.0 | 0.00 | 0.09 | 0.00 | 97 | 1013.1 |
| 20260510102741 | 43 | 277 | 0.0 | 0.0 | 0.00 | 0.09 | 0.03 | 96 | 1012.1 |
| 20260510102239 | 43 | 277 | 0.0 | 0.0 | 0.00 | 0.09 | 0.03 | 96 | 1011.9 |
| 20260510101737 | 43 | 277 | 0.0 | 0.0 | 0.00 | 0.09 | 0.03 | 96 | 1011.9 |
| 20260510101501 | 43 | 277 | 0.0 | 0.0 | 0.00 | 0.09 | 0.00 | 96 | 1012.7 |
| 20260510101236 | 43 | 277 | 0.0 | 0.0 | 0.00 | 0.09 | 0.03 | 96 | 1011.7 |
| 20260510100733 | 43 | 277 | 0.0 | 0.0 | 0.00 | 0.09 | 0.03 | 96 | 1011.6 |
| 20260510100231 | 43 | 277 | 0.0 | 0.0 | 0.00 | 0.09 | 0.03 | 96 | 1011.5 |
| 20260510100114 | 42 | 277 | 0.0 | 0.0 | 0.00 | 0.09 | 0.00 | 96 | 1012.7 |
| 20260510095731 | 43 | 277 | 0.0 | 0.0 | 0.00 | 0.09 | 0.03 | 96 | 1011.5 |
| 20260510095229 | 43 | 277 | 0.0 | 0.0 | 0.00 | 0.09 | 0.03 | 96 | 1011.6 |
| 20260510094729 | 43 | 277 | 0.0 | 0.0 | 0.00 | 0.09 | 0.03 | 96 | 1011.9 |
| 20260510094502 | 42 | 277 | 0.0 | 0.0 | 0.00 | 0.09 | 0.00 | 96 | 1012.9 |
| 20260510094230 | 43 | 277 | 0.0 | 0.0 | 0.00 | 0.09 | 0.03 | 96 | 1011.9 |
| 20260510093730 | 43 | 277 | 0.0 | 0.0 | 0.00 | 0.09 | 0.03 | 96 | 1012.0 |
| 20260510093230 | 43 | 277 | 0.0 | 0.0 | 0.00 | 0.09 | 0.03 | 96 | 1011.9 |
| 20260510093102 | 42 | 277 | 0.0 | 0.0 | 0.00 | 0.09 | 0.00 | 96 | 1012.8 |
| 20260510092728 | 43 | 277 | 0.0 | 0.0 | 0.00 | 0.09 | 0.03 | 96 | 1011.5 |
| 20260510092231 | 43 | 277 | 0.0 | 0.0 | 0.00 | 0.09 | 0.03 | 96 | 1011.5 |
| 20260510091730 | 43 | 277 | 0.0 | 0.0 | 0.00 | 0.09 | 0.03 | 96 | 1011.8 |
| 20260510091534 | 42 | 277 | 0.0 | 0.0 | 0.00 | 0.09 | 0.00 | 96 | 1012.7 |
| 20260510090729 | 42 | 277 | 0.0 | 1.0 | 0.00 | 0.09 | 0.03 | 96 | 1011.9 |
| 20260510090127 | 42 | 277 | 0.0 | 1.0 | 0.00 | 0.09 | 0.00 | 96 | 1013.2 |
| 20260510085730 | 43 | 277 | 0.0 | 0.0 | 0.00 | 0.09 | 0.03 | 96 | 1012.2 |
| 20260510084729 | 43 | 277 | 0.0 | 0.0 | 0.00 | 0.09 | 0.03 | 96 | 1012.4 |
| 20260510084503 | 42 | 277 | 0.0 | 0.0 | 0.00 | 0.09 | 0.00 | 96 | 1013.3 |
| 20260510084228 | 43 | 277 | 0.0 | 0.0 | 0.00 | 0.09 | 0.03 | 96 | 1012.1 |
| 20260510083730 | 43 | 277 | 0.0 | 0.0 | 0.00 | 0.09 | 0.03 | 96 | 1012.1 |
| 20260510083115 | 42 | 277 | 0.0 | 0.0 | 0.00 | 0.09 | 0.00 | 96 | 1013.3 |
| 20260510082729 | 43 | 277 | 0.0 | 0.0 | 0.00 | 0.09 | 0.03 | 96 | 1012.3 |
| 20260510082230 | 43 | 277 | 0.0 | 0.0 | 0.00 | 0.09 | 0.03 | 96 | 1012.4 |
| 20260510081728 | 42 | 277 | 0.0 | 0.0 | 0.00 | 0.09 | 0.03 | 96 | 1012.6 |
| 20260510081530 | 42 | 277 | 0.0 | 0.0 | 0.00 | 0.09 | 0.00 | 96 | 1013.4 |
| 20260510080729 | 43 | 277 | 0.0 | 0.0 | 0.00 | 0.09 | 0.03 | 96 | 1012.3 |
| 20260510080229 | 43 | 277 | 0.0 | 0.0 | 0.00 | 0.09 | 0.03 | 96 | 1012.4 |
| 20260510080100 | 42 | 277 | 0.0 | 0.0 | 0.01 | 0.09 | 0.00 | 96 | 1013.4 |
| 20260510075730 | 43 | 277 | 0.0 | 0.0 | 0.01 | 0.09 | 0.03 | 96 | 1012.3 |
| 20260510075229 | 43 | 277 | 0.0 | 0.0 | 0.01 | 0.09 | 0.03 | 96 | 1012.4 |
| 20260510074731 | 43 | 277 | 0.0 | 0.0 | 0.01 | 0.09 | 0.03 | 96 | 1012.6 |
| 20260510074652 | 42 | 277 | 0.0 | 0.0 | 0.01 | 0.09 | 0.00 | 96 | 1013.6 |
| 20260510074231 | 43 | 277 | 0.0 | 0.0 | 0.01 | 0.09 | 0.03 | 96 | 1012.5 |
| 20260510073729 | 42 | 277 | 0.0 | 0.0 | 0.01 | 0.09 | 0.03 | 96 | 1012.5 |
| 20260510073051 | 42 | 277 | 0.0 | 0.0 | 0.01 | 0.09 | 0.09 | 96 | 1013.4 |
| 20260510072730 | 42 | 277 | 0.0 | 0.0 | 0.01 | 0.09 | 0.03 | 96 | 1012.4 |
| 20260510072231 | 42 | 277 | 0.0 | 0.0 | 0.01 | 0.09 | 0.03 | 96 | 1012.3 |
| 20260510071729 | 42 | 277 | 0.0 | 0.0 | 0.01 | 0.09 | 0.03 | 96 | 1012.4 |
| 20260510071645 | 42 | 277 | 0.0 | 0.0 | 0.01 | 0.09 | 0.09 | 96 | 1013.4 |
| 20260510070729 | 43 | 277 | 0.0 | 0.0 | 0.01 | 0.09 | 0.03 | 96 | 1012.6 |
| 20260510070229 | 42 | 277 | 0.0 | 0.0 | 0.01 | 0.09 | 0.02 | 96 | 1012.5 |
| 20260510070043 | 42 | 277 | 0.0 | 0.0 | 0.00 | 0.08 | 0.08 | 96 | 1013.5 |
| 20260510065729 | 42 | 277 | 0.0 | 0.0 | 0.00 | 0.08 | 0.02 | 96 | 1012.5 |
| 20260510065229 | 43 | 277 | 0.0 | 0.0 | 0.00 | 0.08 | 0.02 | 96 | 1012.6 |
| 20260510064730 | 42 | 277 | 0.0 | 0.0 | 0.00 | 0.08 | 0.02 | 96 | 1012.6 |
| 20260510064519 | 42 | 277 | 0.0 | 0.0 | 0.00 | 0.08 | 0.08 | 96 | 1013.6 |
| 20260510063729 | 42 | 277 | 0.0 | 0.0 | 0.00 | 0.08 | 0.02 | 96 | 1012.6 |
| 20260510063229 | 42 | 277 | 0.0 | 0.0 | 0.00 | 0.08 | 0.02 | 96 | 1012.6 |
| 20260510063021 | 42 | 277 | 0.0 | 0.0 | 0.00 | 0.08 | 0.08 | 96 | 1013.7 |
| 20260510062730 | 42 | 277 | 0.0 | 0.0 | 0.01 | 0.08 | 0.02 | 96 | 1012.7 |
| 20260510062230 | 42 | 277 | 0.0 | 0.0 | 0.01 | 0.08 | 0.02 | 96 | 1012.8 |
| 20260510061731 | 42 | 277 | 0.0 | 0.0 | 0.01 | 0.08 | 0.02 | 96 | 1012.7 |
| 20260510061609 | 42 | 277 | 0.0 | 0.0 | 0.01 | 0.08 | 0.08 | 96 | 1013.9 |
| 20260510060727 | 42 | 277 | 0.0 | 1.0 | 0.01 | 0.08 | 0.02 | 96 | 1012.9 |
| 20260510060224 | 42 | 277 | 0.0 | 2.0 | 0.01 | 0.08 | 0.02 | 96 | 1013.1 |
| 20260510060014 | 42 | 277 | 0.0 | 2.0 | 0.01 | 0.08 | 0.08 | 96 | 1014.2 |
| 20260510055722 | 42 | 277 | 0.0 | 2.0 | 0.01 | 0.08 | 0.02 | 96 | 1013.2 |
| 20260510055223 | 43 | 277 | 0.0 | 0.0 | 0.01 | 0.08 | 0.02 | 96 | 1013.1 |
| 20260510054604 | 42 | 277 | 0.0 | 1.0 | 0.01 | 0.08 | 0.08 | 96 | 1014.1 |
| 20260510054220 | 42 | 277 | 0.0 | 1.0 | 0.01 | 0.08 | 0.02 | 96 | 1013.0 |
| 20260510053719 | 42 | 277 | 0.0 | 0.0 | 0.01 | 0.08 | 0.02 | 96 | 1012.9 |
| 20260510053219 | 42 | 277 | 0.0 | 1.0 | 0.01 | 0.08 | 0.02 | 96 | 1012.9 |
| 20260510053150 | 42 | 277 | 0.0 | 0.0 | 0.01 | 0.08 | 0.08 | 96 | 1014.1 |
| 20260510052718 | 42 | 277 | 0.0 | 1.0 | 0.00 | 0.07 | 0.01 | 96 | 1012.9 |
| 20260510052220 | 42 | 277 | 0.0 | 1.0 | 0.00 | 0.07 | 0.01 | 96 | 1013.1 |
| 20260510051715 | 42 | 277 | 0.0 | 1.0 | 0.00 | 0.07 | 0.01 | 95 | 1013.0 |
| 20260510051544 | 42 | 277 | 0.0 | 1.0 | 0.00 | 0.07 | 0.07 | 95 | 1014.1 |
| 20260510051214 | 42 | 277 | 0.0 | 0.0 | 0.00 | 0.07 | 0.01 | 96 | 1012.9 |
| 20260510050714 | 42 | 277 | 0.0 | 0.0 | 0.01 | 0.07 | 0.01 | 95 | 1012.9 |
| 20260510050211 | 42 | 277 | 0.0 | 0.0 | 0.01 | 0.07 | 0.01 | 95 | 1012.9 |
| 20260510050138 | 42 | 277 | 0.0 | 0.0 | 0.01 | 0.07 | 0.07 | 95 | 1014.0 |
| 20260510045710 | 43 | 277 | 0.0 | 0.0 | 0.01 | 0.07 | 0.01 | 95 | 1013.0 |
| 20260510045211 | 43 | 277 | 0.0 | 0.0 | 0.01 | 0.07 | 0.01 | 95 | 1013.0 |
| 20260510044710 | 43 | 277 | 0.0 | 0.0 | 0.01 | 0.07 | 0.01 | 95 | 1013.1 |
| 20260510044534 | 42 | 277 | 0.0 | 0.0 | 0.01 | 0.07 | 0.07 | 95 | 1014.3 |
| 20260510044212 | 43 | 277 | 0.0 | 0.0 | 0.01 | 0.07 | 0.01 | 95 | 1013.2 |
| 20260510043712 | 42 | 277 | 0.0 | 0.0 | 0.01 | 0.07 | 0.01 | 95 | 1013.1 |
| 20260510043203 | 42 | 277 | 0.0 | 0.0 | 0.01 | 0.07 | 0.01 | 95 | 1013.2 |
| 20260510043133 | 42 | 277 | 0.0 | 0.0 | 0.01 | 0.07 | 0.07 | 95 | 1014.3 |
| 20260510042703 | 43 | 277 | 0.0 | 0.0 | 0.01 | 0.07 | 0.01 | 95 | 1013.3 |
| 20260510041706 | 43 | 277 | 0.0 | 0.0 | 0.01 | 0.07 | 0.01 | 95 | 1013.3 |
| 20260510041540 | 42 | 277 | 0.0 | 0.0 | 0.01 | 0.07 | 0.07 | 95 | 1014.5 |
| 20260510041210 | 43 | 277 | 0.0 | 0.0 | 0.01 | 0.07 | 0.00 | 95 | 1013.3 |
| 20260510040703 | 43 | 277 | 0.0 | 1.0 | 0.00 | 0.06 | 0.00 | 95 | 1013.3 |
| 20260510040212 | 43 | 277 | 0.0 | 1.0 | 0.00 | 0.06 | 0.00 | 95 | 1013.4 |
| 20260510040134 | 42 | 277 | 0.0 | 1.0 | 0.00 | 0.06 | 0.06 | 95 | 1014.6 |
| 20260510035706 | 43 | 277 | 0.0 | 1.0 | 0.00 | 0.06 | 0.06 | 95 | 1013.4 |
| 20260510035219 | 42 | 277 | 0.0 | 1.0 | 0.00 | 0.06 | 0.06 | 95 | 1013.4 |
| 20260510033207 | 43 | 277 | 0.0 | 0.0 | 0.00 | 0.06 | 0.06 | 95 | 1014.0 |
| 20260510033137 | 42 | 277 | 0.0 | 0.0 | 0.00 | 0.06 | 0.06 | 95 | 1015.1 |
| 20260510032705 | 43 | 277 | 0.0 | 0.0 | 0.00 | 0.06 | 0.06 | 95 | 1013.9 |
| 20260510032208 | 43 | 277 | 0.0 | 0.0 | 0.00 | 0.06 | 0.06 | 95 | 1013.9 |
| 20260510031704 | 43 | 277 | 0.0 | 0.0 | 0.00 | 0.06 | 0.06 | 95 | 1013.8 |
| 20260510031205 | 43 | 277 | 0.0 | 0.0 | 0.00 | 0.06 | 0.06 | 95 | 1013.8 |
| 20260510030702 | 43 | 277 | 0.0 | 0.0 | 0.00 | 0.06 | 0.06 | 95 | 1013.9 |
| 20260510030204 | 43 | 277 | 0.0 | 0.0 | 0.01 | 0.06 | 0.06 | 95 | 1014.0 |
| 20260510025702 | 43 | 277 | 0.0 | 0.0 | 0.01 | 0.06 | 0.06 | 95 | 1014.2 |
| 20260510025201 | 43 | 277 | 0.0 | 0.0 | 0.01 | 0.06 | 0.06 | 95 | 1014.2 |
| 20260510024703 | 43 | 277 | 0.0 | 1.0 | 0.01 | 0.06 | 0.06 | 95 | 1014.2 |
| 20260510024516 | 42 | 277 | 0.0 | 0.0 | 0.01 | 0.06 | 0.06 | 95 | 1015.3 |
| 20260510024201 | 43 | 277 | 0.0 | 1.0 | 0.01 | 0.06 | 0.06 | 95 | 1014.1 |
| 20260510023701 | 43 | 277 | 0.0 | 1.0 | 0.01 | 0.06 | 0.06 | 95 | 1014.1 |
| 20260510023201 | 43 | 277 | 0.0 | 1.0 | 0.01 | 0.06 | 0.06 | 95 | 1014.0 |
| 20260510023115 | 42 | 277 | 0.0 | 1.0 | 0.01 | 0.06 | 0.06 | 95 | 1015.1 |
| 20260510022701 | 43 | 277 | 0.0 | 0.0 | 0.01 | 0.06 | 0.06 | 94 | 1014.0 |
| 20260510022201 | 43 | 277 | 0.0 | 0.0 | 0.01 | 0.06 | 0.06 | 95 | 1014.1 |
| 20260510021701 | 43 | 277 | 0.0 | 0.0 | 0.01 | 0.06 | 0.06 | 95 | 1014.2 |
| 20260510021512 | 42 | 277 | 0.0 | 0.0 | 0.01 | 0.06 | 0.06 | 94 | 1015.2 |
| 20260510021202 | 43 | 277 | 0.0 | 0.0 | 0.01 | 0.06 | 0.06 | 94 | 1014.2 |
| 20260510020702 | 43 | 277 | 0.0 | 0.0 | 0.01 | 0.06 | 0.06 | 94 | 1014.4 |
| 20260510020201 | 43 | 277 | 0.0 | 0.0 | 0.00 | 0.05 | 0.05 | 94 | 1014.4 |
| 20260510015701 | 43 | 277 | 0.0 | 1.0 | 0.00 | 0.05 | 0.05 | 94 | 1014.4 |
| 20260510015201 | 43 | 277 | 0.0 | 1.0 | 0.00 | 0.05 | 0.05 | 94 | 1014.6 |
| 20260510014702 | 43 | 277 | 0.0 | 0.0 | 0.00 | 0.05 | 0.05 | 94 | 1014.6 |
| 20260510014503 | 42 | 277 | 0.0 | 0.0 | 0.00 | 0.05 | 0.05 | 94 | 1015.6 |
| 20260510014202 | 43 | 277 | 0.0 | 1.0 | 0.00 | 0.05 | 0.05 | 94 | 1014.5 |
| 20260510013701 | 43 | 277 | 0.0 | 1.0 | 0.00 | 0.05 | 0.05 | 94 | 1014.5 |
| 20260510013200 | 43 | 277 | 0.0 | 0.0 | 0.00 | 0.05 | 0.05 | 94 | 1014.5 |
| 20260510013109 | 43 | 277 | 0.0 | 0.0 | 0.00 | 0.05 | 0.05 | 94 | 1015.6 |
| 20260510012201 | 43 | 277 | 0.0 | 0.0 | 0.00 | 0.05 | 0.05 | 94 | 1014.6 |
| 20260510011702 | 43 | 277 | 0.0 | 1.0 | 0.00 | 0.05 | 0.05 | 94 | 1014.6 |
| 20260510011503 | 43 | 277 | 0.0 | 1.0 | 0.00 | 0.05 | 0.05 | 94 | 1015.6 |
| 20260510011201 | 43 | 277 | 0.0 | 1.0 | 0.00 | 0.05 | 0.05 | 94 | 1014.6 |
| 20260510010701 | 43 | 277 | 0.0 | 0.0 | 0.00 | 0.05 | 0.05 | 94 | 1014.6 |
| 20260510010201 | 43 | 277 | 0.0 | 0.0 | 0.00 | 0.05 | 0.05 | 94 | 1014.6 |
| 20260510005201 | 43 | 277 | 0.0 | 0.0 | 0.00 | 0.05 | 0.05 | 94 | 1014.5 |
| 20260510004702 | 43 | 277 | 0.0 | 0.0 | 0.00 | 0.05 | 0.05 | 94 | 1014.4 |
| 20260510004503 | 42 | 277 | 0.0 | 0.0 | 0.00 | 0.05 | 0.05 | 94 | 1015.4 |
| 20260510004202 | 43 | 277 | 0.0 | 1.0 | 0.00 | 0.05 | 0.05 | 94 | 1014.3 |
| 20260510003702 | 43 | 277 | 0.0 | 1.0 | 0.00 | 0.05 | 0.05 | 94 | 1014.4 |
| 20260510003202 | 43 | 277 | 0.0 | 0.0 | 0.00 | 0.05 | 0.05 | 94 | 1014.3 |
| 20260510003102 | 43 | 277 | 0.0 | 0.0 | 0.00 | 0.05 | 0.05 | 94 | 1015.3 |
| 20260510002702 | 43 | 277 | 0.0 | 1.0 | 0.00 | 0.05 | 0.05 | 94 | 1014.2 |
| 20260510002202 | 43 | 277 | 0.0 | 1.0 | 0.00 | 0.05 | 0.05 | 93 | 1014.1 |
| 20260510001701 | 43 | 277 | 0.0 | 2.0 | 0.00 | 0.05 | 0.05 | 93 | 1014.0 |
| 20260510001651 | 43 | 277 | 0.0 | 2.0 | 0.00 | 0.05 | 0.05 | 93 | 1015.1 |
| 20260510001202 | 43 | 277 | 0.0 | 2.0 | 0.00 | 0.05 | 0.05 | 94 | 1014.0 |
| 20260510000701 | 43 | 277 | 0.0 | 0.0 | 0.00 | 0.05 | 0.05 | 94 | 1013.9 |
| 20260510000204 | 43 | 277 | 0.0 | 1.0 | 0.00 | 0.05 | 0.05 | 94 | 1014.0 |
| 20260510000040 | 43 | 277 | 0.0 | 1.0 | 0.00 | 0.05 | 0.05 | 94 | 1014.9 |
| 20260509235701 | 43 | 277 | 0.0 | 1.0 | 0.01 | 0.05 | 0.05 | 94 | 1013.9 |
| 20260509234702 | 43 | 277 | 0.0 | 0.0 | 0.01 | 0.05 | 0.05 | 94 | 1013.8 |
| 20260509234635 | 43 | 277 | 0.0 | 0.0 | 0.01 | 0.05 | 0.05 | 94 | 1014.8 |
| 20260509234200 | 43 | 277 | 0.0 | 1.0 | 0.01 | 0.05 | 0.05 | 94 | 1013.9 |
| 20260509233702 | 43 | 277 | 0.0 | 1.0 | 0.01 | 0.05 | 0.05 | 93 | 1013.9 |
| 20260509233202 | 43 | 277 | 0.0 | 1.0 | 0.01 | 0.05 | 0.05 | 93 | 1013.9 |
| 20260509233040 | 43 | 277 | 0.0 | 1.0 | 0.01 | 0.05 | 0.05 | 93 | 1014.9 |
| 20260509232702 | 43 | 277 | 0.0 | 1.0 | 0.01 | 0.05 | 0.05 | 93 | 1014.0 |
| 20260509232202 | 43 | 277 | 0.0 | 1.0 | 0.01 | 0.05 | 0.05 | 93 | 1014.1 |
| 20260509231702 | 43 | 277 | 0.0 | 1.0 | 0.01 | 0.05 | 0.05 | 93 | 1014.0 |
| 20260509231631 | 43 | 277 | 0.0 | 1.0 | 0.01 | 0.05 | 0.05 | 93 | 1015.0 |
| 20260509231200 | 43 | 277 | 1.0 | 7.0 | 0.01 | 0.05 | 0.05 | 93 | 1014.0 |
| 20260509230202 | 43 | 277 | 0.0 | 2.0 | 0.01 | 0.05 | 0.05 | 92 | 1014.3 |
| 20260509230030 | 43 | 277 | 0.0 | 2.0 | 0.00 | 0.04 | 0.04 | 92 | 1015.3 |
| 20260509225702 | 43 | 277 | 0.0 | 3.0 | 0.00 | 0.04 | 0.04 | 92 | 1014.2 |
| 20260509225202 | 43 | 277 | 1.0 | 6.0 | 0.00 | 0.04 | 0.04 | 92 | 1014.3 |
| 20260509224630 | 43 | 277 | 0.0 | 6.0 | 0.00 | 0.04 | 0.04 | 92 | 1015.4 |
| 20260509224201 | 44 | 277 | 1.0 | 5.0 | 0.00 | 0.04 | 0.04 | 92 | 1014.3 |
| 20260509223701 | 44 | 277 | 2.0 | 5.0 | 0.00 | 0.04 | 0.04 | 91 | 1014.3 |
| 20260509223035 | 43 | 277 | 1.0 | 7.0 | 0.00 | 0.04 | 0.04 | 92 | 1015.4 |
| 20260509222649 | 44 | 277 | 2.0 | 7.0 | 0.00 | 0.04 | 0.04 | 92 | 1014.3 |
| 20260509222138 | 44 | 277 | 2.0 | 7.0 | 0.00 | 0.04 | 0.04 | 92 | 1014.3 |
| 20260509221632 | 44 | 277 | 2.0 | 8.0 | 0.00 | 0.04 | 0.04 | 91 | 1014.4 |
| 20260509221625 | 43 | 277 | 1.0 | 8.0 | 0.00 | 0.04 | 0.04 | 91 | 1015.4 |
| 20260509221129 | 44 | 277 | 1.0 | 8.0 | 0.00 | 0.04 | 0.04 | 91 | 1014.4 |
| 20260509220630 | 44 | 277 | 1.0 | 6.0 | 0.00 | 0.04 | 0.04 | 91 | 1014.2 |
| 20260509220130 | 44 | 277 | 2.0 | 6.0 | 0.00 | 0.04 | 0.04 | 91 | 1014.1 |
| 20260509220028 | 44 | 277 | 2.0 | 6.0 | 0.00 | 0.04 | 0.04 | 91 | 1015.1 |
| 20260509215630 | 44 | 277 | 1.0 | 6.0 | 0.00 | 0.04 | 0.04 | 91 | 1014.1 |
| 20260509215130 | 44 | 277 | 1.0 | 3.0 | 0.00 | 0.04 | 0.04 | 91 | 1014.1 |
| 20260509214613 | 44 | 277 | 0.0 | 2.0 | 0.01 | 0.04 | 0.04 | 91 | 1015.2 |
| 20260509214129 | 45 | 277 | 0.0 | 2.0 | 0.01 | 0.04 | 0.04 | 90 | 1014.3 |
| 20260509213129 | 45 | 277 | 0.0 | 0.0 | 0.01 | 0.04 | 0.04 | 91 | 1014.4 |
| 20260509213003 | 45 | 277 | 0.0 | 0.0 | 0.01 | 0.04 | 0.04 | 91 | 1015.5 |
| 20260509212629 | 45 | 277 | 0.0 | 1.0 | 0.01 | 0.04 | 0.04 | 90 | 1014.4 |
| 20260509212130 | 45 | 277 | 0.0 | 1.0 | 0.01 | 0.04 | 0.04 | 90 | 1014.2 |
| 20260509211630 | 45 | 277 | 0.0 | 2.0 | 0.01 | 0.04 | 0.04 | 90 | 1014.2 |
| 20260509211604 | 45 | 277 | 0.0 | 2.0 | 0.01 | 0.04 | 0.04 | 90 | 1015.2 |
| 20260509211130 | 45 | 277 | 0.0 | 2.0 | 0.01 | 0.04 | 0.04 | 90 | 1014.2 |
| 20260509210630 | 45 | 277 | 0.0 | 2.0 | 0.02 | 0.04 | 0.04 | 90 | 1014.1 |
| 20260509210130 | 45 | 277 | 1.0 | 4.0 | 0.02 | 0.04 | 0.04 | 90 | 1014.2 |
| 20260509210005 | 45 | 277 | 0.0 | 4.0 | 0.02 | 0.04 | 0.04 | 90 | 1015.3 |
| 20260509205630 | 45 | 277 | 1.0 | 4.0 | 0.02 | 0.04 | 0.04 | 89 | 1014.3 |
| 20260509205131 | 45 | 277 | 0.0 | 3.0 | 0.02 | 0.04 | 0.04 | 90 | 1014.4 |
| 20260509204630 | 45 | 277 | 1.0 | 3.0 | 0.01 | 0.03 | 0.03 | 90 | 1014.5 |
| 20260509204555 | 45 | 277 | 0.0 | 2.0 | 0.01 | 0.03 | 0.03 | 90 | 1015.5 |
| 20260509204130 | 45 | 277 | 1.0 | 3.0 | 0.02 | 0.03 | 0.03 | 90 | 1014.6 |
| 20260509203629 | 45 | 277 | 0.0 | 3.0 | 0.02 | 0.03 | 0.03 | 89 | 1014.7 |
| 20260509202630 | 45 | 277 | 0.0 | 3.0 | 0.03 | 0.03 | 0.03 | 89 | 1014.8 |
| 20260509202130 | 45 | 277 | 1.0 | 5.0 | 0.03 | 0.03 | 0.03 | 90 | 1014.8 |
| 20260509201630 | 45 | 277 | 1.0 | 5.0 | 0.03 | 0.03 | 0.03 | 89 | 1014.9 |
| 20260509201550 | 45 | 277 | 0.0 | 5.0 | 0.03 | 0.03 | 0.03 | 89 | 1015.9 |
| 20260509201130 | 45 | 277 | 1.0 | 4.0 | 0.03 | 0.03 | 0.03 | 88 | 1014.9 |
| 20260509200629 | 45 | 277 | 2.0 | 5.0 | 0.02 | 0.02 | 0.02 | 88 | 1014.9 |
| 20260509195628 | 45 | 277 | 1.0 | 4.0 | 0.02 | 0.02 | 0.02 | 87 | 1015.0 |
| 20260509195129 | 45 | 277 | 1.0 | 5.0 | 0.02 | 0.02 | 0.02 | 87 | 1015.0 |
| 20260509194525 | 45 | 277 | 2.0 | 4.0 | 0.01 | 0.01 | 0.01 | 86 | 1016.0 |
| 20260509194129 | 45 | 277 | 0.0 | 3.0 | 0.01 | 0.01 | 0.01 | 87 | 1015.0 |
| 20260509193121 | 45 | 277 | 0.0 | 3.0 | 0.01 | 0.01 | 0.01 | 86 | 1016.2 |
| 20260509192629 | 45 | 277 | 1.0 | 4.0 | 0.00 | 0.00 | 0.00 | 84 | 1015.2 |
| 20260509191516 | 45 | 277 | 1.0 | 8.0 | 0.00 | 0.00 | 0.00 | 81 | 1016.2 |
| 20260509191131 | 46 | 277 | 2.0 | 8.0 | 0.00 | 0.00 | 0.00 | 79 | 1015.2 |
| 20260509190129 | 47 | 277 | 3.0 | 7.0 | 0.00 | 0.00 | 0.00 | 75 | 1015.1 |
| 20260509190113 | 47 | 277 | 2.0 | 7.0 | 0.00 | 0.00 | 0.00 | 75 | 1016.1 |
| 20260509185629 | 47 | 277 | 2.0 | 11.0 | 0.00 | 0.00 | 0.00 | 73 | 1015.2 |
| 20260509185129 | 48 | 277 | 2.0 | 11.0 | 0.00 | 0.00 | 0.00 | 74 | 1015.0 |
| 20260509184630 | 48 | 277 | 3.0 | 9.0 | 0.00 | 0.00 | 0.00 | 71 | 1015.0 |
| 20260509184520 | 48 | 277 | 2.0 | 9.0 | 0.00 | 0.00 | 0.00 | 71 | 1016.0 |
| 20260509184131 | 49 | 277 | 3.0 | 9.0 | 0.00 | 0.00 | 0.00 | 69 | 1014.9 |
| 20260509183630 | 49 | 277 | 3.0 | 11.0 | 0.00 | 0.00 | 0.00 | 66 | 1015.0 |